www.pogodaiklimat.ru

Погода и климат >> Архив погоды >> Россия >> Нижегородская область >> Лысково


ПОГОДА в Лысково

  • Прогноз погоды в Лысково
  • Монитор погоды в Лысково
  • Климат города

АРХИВ ПОГОДЫ в Лысково

Время (UTC), дата Ветер
(напр.,м/с)
 
Видим.   Явления Облачность Т
(С)
Тd
(С)
f
(%)
Тe
(С)
Тes
(С)
Комфортность P
(гПа)
Po
(гПа)
Тmin
(С)
Tmax
(С)
R
(мм)
R24
(мм)
S
(см)
09 17.11 СЗ 4-6
{7}
20 км 9/9 300 м
[Frnb]
+1.4 -1.5 81 -4 -4 1019.4 1003.8
12 17.11 З 3-5
{6}
20 км 9/9 300 м
[Frnb]
+1.4 -0.8 85 -3 -3 1020.0 1004.4
15 17.11 ЮЗ 3-6
{7}
20 км 9/9 300 м
[Cb cap]
+1.0 -1.9 81 -3 -3 1020.7 1005.1 +1.6 0.0
18 17.11 ЮЗ 2-4
{7}
10 км слабый ливневой снег 9/9 300 м
[Cb cap]
+1.2 -1.7 81 -2 -2 1020.2 1004.6
21 17.11 З 3-5
{9}
20 км {ливн. осадки} 9/9 600 м
[Cb cap]
+1.0 -2.5 77 -3 -3 1019.3 1003.7
00 18.11 ЮЗ 4-8
{10}
20 км {ливн. осадки} 9/9 600 м
[Sc]
+0.2 -2.8 80 -5 -5 1018.6 1002.9
03 18.11 ЮЗ 4-6
{10}
20 км 10/10 600 м
[Sc]
+0.6 -3.0 77 -5 -5 1017.3 1001.8 +0.1 0.0 1
06 18.11 Ю 5-7
{9}
20 км 10/10 300 м
[Frnb]
+0.9 -2.4 79 -5 -5 1017.6 1002.1
09 18.11 З 4
{9}
10 км в посл. час снег 10/10 300 м
[Frnb]
+1.7 -1.1 82 -3 -3 1017.8 1002.3
12 18.11 ЮЗ 3-5
{9}
20 км {снег} 10/10 300 м
[Frnb]
+1.9 -0.6 83 -2 -2 1018.0 1002.5
15 18.11 ЮЗ 1-4
{6}
10 км 10/10 600 м
[Sc]
+1.6 -0.0 89 -0 -0 1018.8 1003.2 +2.1 0.0
18 18.11 ЮЗ 2-3
{5}
10 км 10/10 600 м
[Sc]
+1.4 -0.3 88 -2 -2 1018.9 1003.3
21 18.11 Ю 2-4
{6}
20 км 9/9 600 м
[]
+0.5 -1.2 88 -3 -3 1018.9 1003.3
00 19.11 -4
{6}
20 км н/о +0.5 -1.2 88 -3 -3 1018.9 1003.3
03 19.11 Ю 3-5
{6}
10 км 10/10 300 м
[Frnb]
-0.5 -2.0 90 -5 -5 1018.8 1003.2 -0.8 <0.5
06 19.11 Ю 3-6
{6}
10 км {снег} 10/10 300 м
[Frnb]
+1.1 0.0 92 -3 -3 1018.4 1002.8
09 19.11 Ю 2-5
{7}
10 км 9/9 600 м
[Sc]
+1.5 -0.7 85 -2 -2 1018.3 1002.7
12 19.11 ЮВ 2-4
{7}
10 км слабый снег 10/10 300 м
[Frnb]
+1.9 -0.9 82 -1 -1 1017.2 1001.7
15 19.11 Ю 3-7
{7}
10 км {снег} 9/9 300 м
[Frnb]
+1.3 +0.5 94 -3 -3 1016.7 1001.2 +2.2 0.0
18 19.11 ЮВ 3-5
{9}
10 км слабый снег 10/10 300 м
[Frnb]
+1.4 0.0 90 -3 -3 1015.2 999.7
21 19.11 Ю 2-4
{7}
10 км слабый снег 9/9 300 м
[Frnb]
+1.1 +0.3 94 -3 -3 1014.1 998.6
00 20.11 Ю 3-6
{7}
10 км слабый дождь {снег} 10/10 200 м
[Frnb Ns]
+1.0 +0.5 96 -4 -4 1012.6 997.2
03 20.11 Ю 2-4
{6}
4000 м слабый снег {дождь} 10/10 200 м
[Frnb Ns]
+2.4 +1.9 96 -1 -1 1011.6 996.3 +0.7 1
06 20.11 Ю 2-4
{7}
10 км слабый дождь {снег} 10/10 300 м
[Frnb Ns]
+3.3 +2.6 95 0 0 1012.2 996.9
09 20.11 ЮЗ 2-4
{6}
10 км слабый дождь 10/10 300 м
[Frnb]
+4.3 +3.1 92 +1 +1 1013.3 998.0
12 20.11 З 1-2
{5}
20 км в посл. час дождь 10/10 300 м
[Frnb]
+3.7 +3.0 95 +2 +2 1013.9 998.5
15 20.11 СВ 1-2
{5}
10 км в посл. час дождь 10/10 300 м
[Frnb]
+2.3 +1.5 94 +1 +1 1014.6 999.2 +4.4 0.9
18 20.11 СВ 2-3
{3}
10 км слабый дождь 10/10 300 м
[Frnb]
+2.2 +1.4 94 -1 -1 1014.3 998.8
21 20.11 СВ 2-4
{4}
4000 м дождь 10/10 200 м
[Frnb Ns]
+2.5 +2.0 96 -1 -1 1012.5 997.2
00 21.11 В 3-5
{5}
10 км слабый дождь 10/10 200 м
[Frnb Ns]
+3.6 +3.1 97 -1 -1 1009.7 994.4
03 21.11 ЮВ 4-9
{9}
20 км {дождь} 10/10 200 м
[Frnb Ns]
+4.5 +3.8 95 0 0 1006.8 991.7 +2.1 6
06 21.11 ЮВ 3-7
{9}
20 км {дождь} 10/10 300 м
[Frnb]
+3.6 +1.0 83 -0 -0 1006.0 990.8
09 21.11 ЮВ 3-6
{8}
10 км слабый дождь 10/10 300 м
[Frnb Ns]
+2.8 +1.2 89 -1 -1 1005.6 990.4
12 21.11 ЮВ 3-5
{7}
4000 м слабый дождь 10/10 300 м
[Frnb Ns]
+3.2 +2.2 93 -1 -1 1005.2 990.0
15 21.11 ЮВ 2-5
{7}
4000 м слабый дождь 10/10 200 м
[Frnb Ns]
+3.4 +2.4 93 0 0 1005.2 990.0 +4.7 3
18 21.11 ЮВ 2-4
{6}
4000 м слабая морось {дождь} 10/10 200 м
[St]
+3.2 +2.4 94 0 0 1005.0 989.8
21 21.11 ЮВ 2-5
{5}
10 км {морось} 10/10 200 м
[St]
+2.8 +1.8 93 -0 -0 1005.0 989.8
00 22.11 ЮВ 2-4
{5}
10 км слабый дождь {морось} 10/10 200 м
[Frnb Ns]
+2.6 +1.3 91 -1 -1 1004.6 989.4
03 22.11 В 2-4
{4}
10 км {дождь} 10/10 300 м
[Frnb]
+2.0 +0.9 92 -1 -1 1004.7 989.4 +1.9 0.5
06 22.11 В 2-3
{5}
10 км {дождь} 9/9 600 м
[Sc]
+0.5 -0.9 90 -3 -3 1004.9 989.6 +0.4
09 22.11 В 2-5
{6}
20 км 8/3 600 м
[Sc Ac trans]
+1.8 -0.1 87 -2 -1 1004.2 988.9
12 22.11 В 2-4
{6}
20 км 9/9 600 м
[Sc]
+1.6 -0.3 87 -2 -2 1003.8 988.5
15 22.11 В 2-4
{6}
20 км 9/9 600 м
[Sc]
+1.6 -0.3 87 -2 -2 1003.5 988.2 +2.2
18 22.11 ЮВ 1-3
{6}
10 км 9/9 600 м
[Sc]
+1.5 -0.2 88 -0 -0 1003.8 988.5
21 22.11 штиль 0
{3}
4000 м дымка 10/10 300 м
[Sc]
+1.6 +0.5 92 0 0 1003.9 988.6
00 23.11 С 1-2
{2}
200 м туман {морось} ?/? +1.5 +1.2 98 -1 -1 1004.2 988.9
03 23.11 СЗ 1-2
{3}
4000 м дождь {туман} 10/10 200 м
[Frnb Ns]
+1.1 +0.6 96 -1 -1 1005.2 989.9 +0.9 0.4
06 23.11 СЗ 2-3
{4}
4000 м слабый снег {дождь} 10/10 200 м
[Frnb Ns]
+0.4 -0.2 96 -3 -3 1007.3 992.0 +0.2
09 23.11 СЗ 3-2
{5}
4000 м слабый снег 10/10 200 м
[Frnb Ns]
+0.1 -0.2 98 -5 -5 1009.0 993.5
12 23.11 СЗ 3-5
{6}
4000 м слабый снег 10/10 200 м
[Frnb]
-0.7 -1.1 97 -6 -6 1010.8 995.3
15 23.11 ЮЗ 3-6
{7}
4000 м слабый снег 10/10 200 м
[Frnb Ns]
-1.5 -2.3 94 -7 -7 1013.7 998.1 +1.1 5
18 23.11 СЗ 2-4
{7}
4000 м слабый снег 10/10 200 м
[Frnb Ns]
-2.3 -3.2 94 -6 -6 1016.2 1000.5
21 23.11 СЗ 3-5
{6}
4000 м слабый снег 10/10 200 м
[Frnb Ns]
-3.0 -4.0 93 -8 -8 1018.8 1003.0
00 24.11 СЗ 2-4
{5}
4000 м слабый снег 10/10 200 м
[Frnb Ns]
-3.3 -4.4 92 -8 -8 1019.9 1004.1
03 24.11 СЗ 2-4
{4}
4000 м слабый снег 10/10 200 м
[Frnb Ns]
-3.6 -4.7 92 -8 -8 1021.9 1006.0 -3.7 1 5
06 24.11 СЗ 2-4
{4}
10 км слабый снег 10/10 300 м
[Frnb Ns]
-3.5 -4.9 90 -8 -8 1022.7 1006.8

 

Местоположение метеостанции Лысково (Нижегородская область, Россия): широта 56.01 долгота 45.03 высота над уровнем моря 124 м.

В архиве по умолчанию представлена погода в Лысково за последнюю неделю. Архивные данные за месяц целиком и за предыдущие месяцы, начиная с января 2011 года, Вы можете получить, выбрав интересующий диапазон дат из раскрывающегося списка и нажав кнопку "Ввод!".

Внимание! Время в таблицах - всемирное. Для получения местного времени необходимо прибавить поправку, которая в Лысково равна 3 ч.

Смотрите также архив погоды в соседних городах и на ближайших метеорологических станциях:

Погода в Сергаче (Нижегородская область, Россия) (61 км)
Погода в Дальнем Константиново (Нижегородская область, Россия) (64 км)
Погода в Нижнем Новгороде (Нижегородская область, Россия) (70 км)
Погода в Нижнем Новгороде аэропорт (Нижегородская область, Россия) (82 км)
Погода в Семенове (Нижегородская область, Россия) (86 км)
Погода в Воскресенском (Нижегородская область, Россия) (92 км)
Погода в Козьмодемьянске (Марий-Эл, Россия) (102 км)
Погода в Арзамасе (Нижегородская область, Россия) (106 км)
Погода в Большом Болдино (Нижегородская область, Россия) (112 км)
Погода в Лукоянове (Нижегородская область, Россия) (114 км)

Пояснения к столбцам:

Ветер - указаны скорость ветра в м/с - средняя за 10 мин, порывы в срок и между сроками (в фигурных скобках) и направление, откуда дует ветер: С - северный, СВ - северо-восточный, В - восточный, ЮВ - юго-восточный, Ю - южный, ЮЗ - юго-западный, З - западный, СЗ - северо-западный.
Видимость - горизонтальная дальность видимости в метрах или километрах. При видимости от 1 до 10 км при отсутствии осадков обычно наблюдается дымка, при ухудшении видимости до 1 км и менее - туман. В сухую погоду видимость может ухудшаться дымом, пылью или мглою.
Явления - указаны атмосферные явления, наблюдавшиеся в срок или в последний час перед сроком; фигурными скобками обозначены явления, наблюдавшиеся между сроками (за 1-3 часа до срока); квадратными скобками обозначены град или гололедные отложения с указанием их диаметра в мм.
Облачность - указаны через наклонную черту общая и нижняя облачность в баллах и высота нижней границы облаков в метрах; квадратными скобками обозначены формы облаков: Ci - перистые, Cs - перисто-слоистые, Cc - перисто-кучевые, Ac - высококучевые, As - высокослоистые, Sc - слоисто-кучевые, Ns - слоисто-дождевые, Cu - кучевые, Cb - кучево-дождевые. Подробнее классификацию облаков см. в Атласе облаков (PDF).
T - Температура воздуха - температура, измеренная на высоте 2 м над землей.
Td - Температура точки росы - температура, при понижении до которой содержащийся в воздухе водяной пар достигнет насыщения.
f - Относительная влажность воздуха - влажноcть воздуха, измеренная на высоте 2 м над землей.
Te - Эффективная температура - температура, которую ощущает одетый по сезону человек в тени. Характеристика душности погоды. При расчете учитывается влияние влажности воздуха и скорости ветра на теплоощущения человека.
Tes - Эффективная температура на солнце - температура, которую ощущает человек, с поправкой на солнечный нагрев. Характеристика знойности погоды. Зависит от высоты солнца над горизонтом, облачности и скорости ветра. Ночью, в пасмурную погоду, а также при ветре 12 м/с и более поправка равна нулю.
P - Атмосферное давление - приведенное к уровню моря атмосферное давление.
Po - Атмосферное давление - измеренное на уровне метеостанции атмосферное давление.
Tmin - Минимальная температура - минимум температуры воздуха на высоте 2 м над землей.
Tmax - Максимальная температура - максимум температуры воздуха на высоте 2 м над землей.
R - Количество осадков - Количество выпавших осадков за период времени, мм. При наведении курсора мыши на число - период времени, за который выпало указанное количество осадков.
R24 - Количество осадков - Количество выпавших осадков за 24 часа, мм.
S - Снежный покров - Высота снежного покрова, см. При наведении курсора мыши на число - состояние снежного покрова и степень покрытия местности в баллах.